,,,PA_Meas_PMT16A,,PR_Meas_QMR101_102,,RH_Meas_QMH101,,SR_Meas_QMS101,,TA_Meas_QMH101,,GenWind,,GenWind,
date,time,status,PA,status,PR,status,RH,status,SR,status,TA,status,DirAvg,status,SpdAvg,
2011-05-28, 00:00:04,VALID,998.476,VALID,0,VALID,65.8131,VALID,0,VALID,27.6821,VALID,178,VALID,7.31055,
2011-05-28, 00:01:04,VALID,998.496,VALID,0,VALID,65.6224,VALID,0,VALID,27.6821,VALID,178,VALID,6.87891,
2011-05-28, 00:02:04,VALID,998.431,VALID,0,VALID,65.3782,VALID,0,VALID,27.7212,VALID,175,VALID,9.24023,
2011-05-28, 00:03:04,VALID,998.484,VALID,0,VALID,65.3782,VALID,0,VALID,27.7993,VALID,166,VALID,6.9043,
2011-05-28, 00:04:04,VALID,998.428,VALID,0,VALID,65.5461,VALID,0,VALID,27.7798,VALID,176,VALID,7.89102,
2011-05-28, 00:05:04,VALID,998.446,VALID,0,VALID,65.6452,VALID,0,VALID,27.8014,VALID,175,VALID,7.3375,
2011-05-28, 00:06:04,VALID,998.403,VALID,0,VALID,65.2638,VALID,0,VALID,27.8014,VALID,181,VALID,6.23047,
2011-05-28, 00:07:04,VALID,998.398,VALID,0,VALID,65.6605,VALID,0,VALID,27.7603,VALID,170,VALID,7.88594,
2011-05-28, 00:08:04,VALID,998.414,VALID,0,VALID,65.8665,VALID,0,VALID,27.7603,VALID,182,VALID,7.53945,
2011-05-28, 00:09:04,VALID,998.381,VALID,0,VALID,65.6758,VALID,0,VALID,27.7212,VALID,179,VALID,7.78438,
2011-05-28, 00:10:04,VALID,998.316,VALID,0,VALID,65.3324,VALID,0,VALID,27.8189,VALID,191,VALID,7.11914,
2011-05-28, 00:11:04,VALID,998.268,VALID,0,VALID,64.4703,VALID,0,VALID,27.8775,VALID,181,VALID,8.62344,
2011-05-28, 00:12:04,VALID,998.336,VALID,0,VALID,64.6992,VALID,0,VALID,27.8796,VALID,186,VALID,5.68086,
2011-05-28, 00:13:04,VALID,998.291,VALID,0,VALID,65.2485,VALID,0,VALID,27.7819,VALID,178,VALID,5.65898,
2011-05-28, 00:14:04,VALID,998.376,VALID,0,VALID,65.2943,VALID,0,VALID,27.7603,VALID,192,VALID,6.69492,
2011-05-28, 00:15:04,VALID,998.225,VALID,0,VALID,64.9891,VALID,0,VALID,27.8384,VALID,193,VALID,8.35859,
2011-05-28, 00:16:04,VALID,998.175,VALID,0,VALID,64.661,VALID,0,VALID,27.8579,VALID,198,VALID,7.43906,
2011-05-28, 00:17:04,VALID,998.196,VALID,0,VALID,64.5847,VALID,0,VALID,27.8579,VALID,180,VALID,7.47969,
2011-05-28, 00:18:04,VALID,998.211,VALID,0,VALID,65.3782,VALID,0,VALID,27.7993,VALID,197,VALID,5.21133,
2011-05-28, 00:19:04,VALID,998.191,VALID,0,VALID,64.5771,VALID,0,VALID,27.8775,VALID,188,VALID,7.87383,
2011-05-28, 00:20:04,VALID,998.26,VALID,0,VALID,64.867,VALID,0,VALID,27.8579,VALID,198,VALID,5.35898,
2011-05-28, 00:21:04,VALID,998.227,VALID,0,VALID,64.951,VALID,0,VALID,27.8775,VALID,182,VALID,8.65391,
2011-05-28, 00:22:04,VALID,998.24,VALID,0,VALID,64.4245,VALID,0,VALID,27.8991,VALID,191,VALID,5.51172,
2011-05-28, 00:23:04,VALID,998.264,VALID,0,VALID,64.8518,VALID,0,VALID,27.8601,VALID,181,VALID,7.42812,
2011-05-28, 00:24:04,VALID,998.29,VALID,0,VALID,65.218,VALID,0,VALID,27.7603,VALID,185,VALID,6.05859,
2011-05-28, 00:25:04,VALID,998.311,VALID,0,VALID,64.7297,VALID,0,VALID,27.7993,VALID,184,VALID,5.88945,
2011-05-28, 00:26:04,VALID,998.282,VALID,0,VALID,64.6839,VALID,0,VALID,27.8384,VALID,171,VALID,7.7293,
2011-05-28, 00:27:04,VALID,998.294,VALID,0,VALID,64.8136,VALID,0,VALID,27.8189,VALID,171,VALID,5.46133,
2011-05-28, 00:28:04,VALID,998.312,VALID,0,VALID,65.3935,VALID,0,VALID,27.7428,VALID,167,VALID,4.46094,
2011-05-28, 00:29:04,VALID,998.149,VALID,0,VALID,64.9128,VALID,0,VALID,27.7233,VALID,177,VALID,8.63359,
2011-05-28, 00:30:04,VALID,998.306,VALID,0,VALID,64.4321,VALID,0,VALID,27.7993,VALID,180,VALID,6.61016,
2011-05-28, 00:31:04,VALID,998.27,VALID,0,VALID,64.1498,VALID,0,VALID,27.8775,VALID,196,VALID,7.61992,
2011-05-28, 00:32:04,VALID,998.321,VALID,0,VALID,64.3177,VALID,0,VALID,27.8558,VALID,177,VALID,6.01719,
2011-05-28, 00:33:04,VALID,998.328,VALID,0,VALID,64.7907,VALID,0,VALID,27.8579,VALID,171,VALID,6.64531,
2011-05-28, 00:34:04,VALID,998.349,VALID,0,VALID,65.3324,VALID,0,VALID,27.7798,VALID,153,VALID,4.09688,
2011-05-28, 00:35:04,VALID,998.368,VALID,0,VALID,65.9886,VALID,0,VALID,27.6019,VALID,160,VALID,4.72148,
2011-05-28, 00:36:04,VALID,998.341,VALID,0,VALID,67.0033,VALID,0,VALID,27.5433,VALID,159,VALID,3.01992,
2011-05-28, 00:37:04,VALID,998.382,VALID,0,VALID,67.5298,VALID,0,VALID,27.4261,VALID,138,VALID,2.68281,
2011-05-28, 00:38:04,VALID,998.38,VALID,0,VALID,68.0944,VALID,0,VALID,27.2894,VALID,132,VALID,2.2375,
2011-05-28, 00:39:04,VALID,998.367,VALID,0,VALID,68.3309,VALID,0,VALID,27.1917,VALID,162,VALID,2.16602,
2011-05-28, 00:40:04,VALID,998.325,VALID,0,VALID,68.4911,VALID,0,VALID,27.1547,VALID,173,VALID,2.49102,
2011-05-28, 00:41:04,VALID,998.315,VALID,0,VALID,68.3004,VALID,0,VALID,27.1547,VALID,174,VALID,3.91797,
2011-05-28, 00:42:04,VALID,998.351,VALID,0,VALID,68.7429,VALID,0,VALID,27.1331,VALID,147,VALID,2.60234,
2011-05-28, 00:43:04,VALID,998.353,VALID,0,VALID,68.9107,VALID,0,VALID,27.055,VALID,162,VALID,3.10078,
2011-05-28, 00:44:04,VALID,998.359,VALID,0,VALID,69.1549,VALID,0,VALID,27.0745,VALID,162,VALID,4.90273,
2011-05-28, 00:45:04,VALID,998.318,VALID,0,VALID,69.0633,VALID,0,VALID,27.1527,VALID,148,VALID,4.3707,
2011-05-28, 00:46:04,VALID,998.265,VALID,0,VALID,68.9565,VALID,0,VALID,27.2698,VALID,158,VALID,4.75195,
2011-05-28, 00:47:04,VALID,998.292,VALID,0,VALID,68.9184,VALID,0,VALID,27.3305,VALID,162,VALID,4.32344,
2011-05-28, 00:48:04,VALID,998.236,VALID,0,VALID,68.1478,VALID,0,VALID,27.387,VALID,167,VALID,5.68867,
2011-05-28, 00:49:04,VALID,998.259,VALID,0,VALID,68.2622,VALID,0,VALID,27.4066,VALID,162,VALID,4.82188,
2011-05-28, 00:50:04,VALID,998.28,VALID,0,VALID,68.3995,VALID,0.112286,VALID,27.4066,VALID,171,VALID,3.95898,
2011-05-28, 00:51:04,VALID,998.268,VALID,0,VALID,68.5598,VALID,0.112286,VALID,27.4066,VALID,161,VALID,4.82969,
2011-05-28, 00:52:04,VALID,998.235,VALID,0,VALID,68.3385,VALID,0,VALID,27.4086,VALID,157,VALID,4.12305,
2011-05-28, 00:53:04,VALID,998.237,VALID,0,VALID,67.8121,VALID,0,VALID,27.4672,VALID,159,VALID,5.14531,
2011-05-28, 00:54:04,VALID,998.272,VALID,0,VALID,68.3232,VALID,0,VALID,27.5042,VALID,158,VALID,4.71719,
2011-05-28, 00:55:04,VALID,998.193,VALID,0,VALID,68.1859,VALID,0,VALID,27.4847,VALID,167,VALID,5.70742,
2011-05-28, 00:56:04,VALID,998.216,VALID,0,VALID,67.9799,VALID,0,VALID,27.5063,VALID,174,VALID,4.34648,
2011-05-28, 00:57:04,VALID,998.235,VALID,0,VALID,68.2469,VALID,0,VALID,27.5063,VALID,178,VALID,4.33125,
2011-05-28, 00:58:04,VALID,998.182,VALID,0,VALID,68.1554,VALID,0,VALID,27.5042,VALID,187,VALID,5.51289,
2011-05-28, 00:59:04,VALID,998.163,VALID,0,VALID,68.0104,VALID,0,VALID,27.5845,VALID,172,VALID,5.83008,
2011-05-28, 01:00:04,VALID,998.126,VALID,0,VALID,68.2775,VALID,0,VALID,27.5628,VALID,167,VALID,7.27852,
2011-05-28, 01:01:04,VALID,998.184,VALID,0,VALID,68.6132,VALID,0,VALID,27.5824,VALID,180,VALID,4.70234,
2011-05-28, 01:02:04,VALID,998.087,VALID,0,VALID,68.4987,VALID,0,VALID,27.5845,VALID,177,VALID,5.18086,
2011-05-28, 01:03:04,VALID,998.101,VALID,0,VALID,68.4224,VALID,0,VALID,27.5628,VALID,180,VALID,6.38711,
2011-05-28, 01:04:04,VALID,998.093,VALID,0,VALID,68.5064,VALID,0,VALID,27.604,VALID,167,VALID,5.96172,
2011-05-28, 01:05:04,VALID,998.069,VALID,0,VALID,68.5674,VALID,0,VALID,27.6019,VALID,196,VALID,6.41914,
2011-05-28, 01:06:04,VALID,998.107,VALID,0,VALID,68.2088,VALID,0,VALID,27.641,VALID,192,VALID,4.57461,
2011-05-28, 01:07:04,VALID,998.034,VALID,0,VALID,67.8426,VALID,0,VALID,27.68,VALID,178,VALID,6.95898,
2011-05-28, 01:08:04,VALID,998.056,VALID,0,VALID,67.5603,VALID,0,VALID,27.68,VALID,175,VALID,6.87891,
2011-05-28, 01:09:04,VALID,998.07,VALID,0,VALID,67.7434,VALID,0,VALID,27.6214,VALID,176,VALID,7.76055,
2011-05-28, 01:10:04,VALID,998.112,VALID,0,VALID,68.2317,VALID,0,VALID,27.6431,VALID,166,VALID,5.24844,
2011-05-28, 01:11:04,VALID,998.145,VALID,0,VALID,68.7963,VALID,0,VALID,27.5845,VALID,166,VALID,4.73164,
2011-05-28, 01:12:04,VALID,998.048,VALID,0,VALID,68.6895,VALID,0,VALID,27.5238,VALID,175,VALID,6.30781,
2011-05-28, 01:13:04,VALID,998.11,VALID,0,VALID,69.2922,VALID,0,VALID,27.4868,VALID,174,VALID,3.87305,
2011-05-28, 01:14:04,VALID,998.066,VALID,0,VALID,69.4829,VALID,0,VALID,27.4282,VALID,184,VALID,4.91719,
2011-05-28, 01:15:04,VALID,998.097,VALID,0,VALID,69.8873,VALID,0,VALID,27.4086,VALID,170,VALID,5.04922,
2011-05-28, 01:16:04,VALID,998.053,VALID,0,VALID,69.8339,VALID,0,VALID,27.3891,VALID,162,VALID,5.28555,
2011-05-28, 01:17:04,VALID,998.04,VALID,0,VALID,69.7729,VALID,0,VALID,27.35,VALID,176,VALID,5.14453,
2011-05-28, 01:18:04,VALID,998.06,VALID,0,VALID,70.1849,VALID,0,VALID,27.3305,VALID,157,VALID,4.08203,
2011-05-28, 01:19:04,VALID,998.056,VALID,0,VALID,70.1772,VALID,0,VALID,27.2503,VALID,170,VALID,5.56602,
2011-05-28, 01:20:04,VALID,998.04,VALID,0,VALID,70.1315,VALID,0,VALID,27.311,VALID,162,VALID,6.28906,
2011-05-28, 01:21:04,VALID,998.104,VALID,0,VALID,70.2535,VALID,0,VALID,27.2894,VALID,170,VALID,4.83555,
2011-05-28, 01:22:04,VALID,998.063,VALID,0,VALID,70.1162,VALID,0,VALID,27.3305,VALID,168,VALID,4.7918,
2011-05-28, 01:23:05,VALID,998.051,VALID,0,VALID,70.2001,VALID,0,VALID,27.311,VALID,162,VALID,4.93125,
2011-05-28, 01:24:05,VALID,998.059,VALID,0,VALID,70.1162,VALID,0,VALID,27.3089,VALID,156,VALID,6.85,
2011-05-28, 01:25:05,VALID,998.072,VALID,0,VALID,70.0475,VALID,0,VALID,27.35,VALID,167,VALID,5.88477,
2011-05-28, 01:26:05,VALID,998.086,VALID,0,VALID,70.2459,VALID,0,VALID,27.3284,VALID,175,VALID,5.91563,
2011-05-28, 01:27:05,VALID,998.131,VALID,0,VALID,70.3756,VALID,0,VALID,27.35,VALID,167,VALID,5.0332,
2011-05-28, 01:28:05,VALID,998.16,VALID,0,VALID,70.5664,VALID,0,VALID,27.3089,VALID,178,VALID,5.00352,
2011-05-28, 01:29:05,VALID,997.975,VALID,0,VALID,70.3069,VALID,0,VALID,27.35,VALID,151,VALID,6.72969,
2011-05-28, 01:30:05,VALID,998.136,VALID,0,VALID,70.0704,VALID,0,VALID,27.4086,VALID,168,VALID,6.96719,
2011-05-28, 01:31:05,VALID,998.143,VALID,0,VALID,70.7724,VALID,0.112286,VALID,27.4066,VALID,157,VALID,4.24219,
2011-05-28, 01:32:05,VALID,998.214,VALID,0,VALID,70.6579,VALID,0,VALID,27.3284,VALID,164,VALID,4.38164,
2011-05-28, 01:33:05,VALID,998.206,VALID,0,VALID,70.6198,VALID,0,VALID,27.3284,VALID,150,VALID,5.27383,
2011-05-28, 01:34:05,VALID,998.215,VALID,0,VALID,70.5664,VALID,0.112286,VALID,27.4261,VALID,169,VALID,4.78828,
2011-05-28, 01:35:05,VALID,998.239,VALID,0,VALID,70.3985,VALID,0.112286,VALID,27.3675,VALID,165,VALID,4.64219,
2011-05-28, 01:36:05,VALID,998.245,VALID,0,VALID,70.8792,VALID,0,VALID,27.3284,VALID,146,VALID,3.38359,
2011-05-28, 01:37:05,VALID,998.215,VALID,0,VALID,71.3217,VALID,0,VALID,27.2915,VALID,153,VALID,2.73203,
2011-05-28, 01:38:05,VALID,998.211,VALID,0,VALID,71.4743,VALID,0,VALID,27.2308,VALID,159,VALID,3.25469,
2011-05-28, 01:39:05,VALID,998.2,VALID,0,VALID,71.6727,VALID,0.112286,VALID,27.1527,VALID,168,VALID,3.35703,
2011-05-28, 01:40:05,VALID,998.216,VALID,0,VALID,71.5201,VALID,0,VALID,27.1722,VALID,157,VALID,3.55,
2011-05-28, 01:41:05,VALID,998.155,VALID,0,VALID,71.4209,VALID,0.112286,VALID,27.1917,VALID,147,VALID,3.34727,
2011-05-28, 01:42:05,VALID,998.158,VALID,0,VALID,71.2149,VALID,0,VALID,27.2524,VALID,174,VALID,4.69063,
2011-05-28, 01:43:05,VALID,998.124,VALID,0,VALID,71.1462,VALID,0,VALID,27.2698,VALID,158,VALID,3.04297,
2011-05-28, 01:44:05,VALID,998.143,VALID,0,VALID,71.0546,VALID,0.112286,VALID,27.2503,VALID,180,VALID,3.24844,
2011-05-28, 01:45:05,VALID,998.139,VALID,0,VALID,70.9249,VALID,0,VALID,27.311,VALID,179,VALID,3.86992,
2011-05-28, 01:46:05,VALID,998.173,VALID,0,VALID,70.7189,VALID,0,VALID,27.3284,VALID,167,VALID,3.41875,
2011-05-28, 01:47:05,VALID,998.121,VALID,0,VALID,70.7266,VALID,0,VALID,27.3305,VALID,182,VALID,3.32969,
2011-05-28, 01:48:05,VALID,998.103,VALID,0,VALID,70.4824,VALID,0,VALID,27.3284,VALID,187,VALID,4.97852,
2011-05-28, 01:49:05,VALID,998.098,VALID,0,VALID,70.635,VALID,0,VALID,27.3089,VALID,176,VALID,3.41484,
2011-05-28, 01:50:05,VALID,998.044,VALID,0,VALID,70.2764,VALID,0,VALID,27.2915,VALID,160,VALID,5.75195,
2011-05-28, 01:51:05,VALID,998.054,VALID,0,VALID,70.5206,VALID,0,VALID,27.3089,VALID,172,VALID,5.79414,
2011-05-28, 01:52:05,VALID,998.059,VALID,0,VALID,70.9021,VALID,0,VALID,27.2698,VALID,165,VALID,4.5957,
2011-05-28, 01:53:05,VALID,998.015,VALID,0,VALID,70.3069,VALID,0,VALID,27.2503,VALID,161,VALID,7.66992,
2011-05-28, 01:54:05,VALID,997.945,VALID,0,VALID,70.2001,VALID,0,VALID,27.2894,VALID,192,VALID,5.22148,
2011-05-28, 01:55:05,VALID,997.943,VALID,0,VALID,70.3451,VALID,0.112286,VALID,27.3284,VALID,177,VALID,5.8543,
2011-05-28, 01:56:05,VALID,997.98,VALID,0,VALID,70.6121,VALID,0,VALID,27.3696,VALID,179,VALID,6.11211,
2011-05-28, 01:57:05,VALID,997.929,VALID,0,VALID,71.0318,VALID,0,VALID,27.2915,VALID,181,VALID,4.53398,
2011-05-28, 01:58:05,VALID,997.904,VALID,0,VALID,71.253,VALID,0,VALID,27.2308,VALID,175,VALID,5.04258,
2011-05-28, 01:59:05,VALID,997.892,VALID,0,VALID,71.5277,VALID,0,VALID,27.2113,VALID,188,VALID,5.87148,
2011-05-28, 02:00:05,VALID,997.86,VALID,0,VALID,71.4209,VALID,0,VALID,27.2113,VALID,184,VALID,5.31641,
2011-05-28, 02:01:05,VALID,997.856,VALID,0,VALID,71.3369,VALID,0,VALID,27.2113,VALID,165,VALID,5.93633,
2011-05-28, 02:02:05,VALID,997.775,VALID,0,VALID,71.5811,VALID,0,VALID,27.1722,VALID,190,VALID,4.79102,
2011-05-28, 02:03:05,VALID,997.82,VALID,0,VALID,71.0318,VALID,0,VALID,27.2719,VALID,179,VALID,6.16055,
2011-05-28, 02:04:05,VALID,997.843,VALID,0,VALID,71.3446,VALID,0,VALID,27.2698,VALID,182,VALID,7.11445,
2011-05-28, 02:05:05,VALID,997.837,VALID,0,VALID,71.5811,VALID,0,VALID,27.1917,VALID,185,VALID,6.08047,
2011-05-28, 02:06:05,VALID,997.808,VALID,0,VALID,72.0923,VALID,0.112286,VALID,27.1331,VALID,184,VALID,6.22813,
2011-05-28, 02:07:05,VALID,997.842,VALID,0,VALID,72.3975,VALID,0,VALID,27.1136,VALID,184,VALID,5.00273,
2011-05-28, 02:08:05,VALID,997.801,VALID,0,VALID,72.6111,VALID,0.112286,VALID,27.0941,VALID,177,VALID,5.15586,
2011-05-28, 02:09:05,VALID,997.776,VALID,0,VALID,72.6874,VALID,0,VALID,27.055,VALID,182,VALID,4.63945,
2011-05-28, 02:10:05,VALID,997.818,VALID,0,VALID,72.84,VALID,0,VALID,27.018,VALID,174,VALID,6.23242,
2011-05-28, 02:11:05,VALID,997.846,VALID,0,VALID,72.6492,VALID,0.112286,VALID,27.016,VALID,179,VALID,6.69102,
2011-05-28, 02:12:05,VALID,997.926,VALID,0,VALID,73.0231,VALID,0,VALID,26.9769,VALID,162,VALID,4.88828,
2011-05-28, 02:13:05,VALID,997.983,VALID,0,VALID,73.0841,VALID,0,VALID,26.9378,VALID,160,VALID,4.6125,
2011-05-28, 02:14:05,VALID,997.89,VALID,0,VALID,72.283,VALID,0,VALID,26.9378,VALID,150,VALID,4.48633,
2011-05-28, 02:15:05,VALID,997.971,VALID,0,VALID,72.3975,VALID,0,VALID,26.9615,VALID,150,VALID,5.5125,
2011-05-28, 02:16:05,VALID,998.02,VALID,0,VALID,72.5043,VALID,0,VALID,26.8813,VALID,145,VALID,4.28945,
2011-05-28, 02:17:05,VALID,997.967,VALID,0,VALID,72.6111,VALID,0,VALID,26.8247,VALID,133,VALID,3.04688,
2011-05-28, 02:18:05,VALID,997.984,VALID,0,VALID,72.2601,VALID,0,VALID,26.6665,VALID,127,VALID,3.48633,
2011-05-28, 02:19:05,VALID,998.059,VALID,0,VALID,72.3898,VALID,0,VALID,26.6294,VALID,127,VALID,2.98555,
2011-05-28, 02:20:05,VALID,998.023,VALID,0,VALID,72.6264,VALID,0,VALID,26.5493,VALID,125,VALID,2.82539,
2011-05-28, 02:21:05,VALID,997.955,VALID,0,VALID,72.5043,VALID,0,VALID,26.5884,VALID,141,VALID,4.62617,
2011-05-28, 02:22:05,VALID,998.016,VALID,0,VALID,72.0923,VALID,0,VALID,26.686,VALID,126,VALID,2.80234,
2011-05-28, 02:23:05,VALID,998.071,VALID,0,VALID,72.2067,VALID,0,VALID,26.7446,VALID,139,VALID,4.08125,
2011-05-28, 02:24:05,VALID,998.082,VALID,0,VALID,72.0541,VALID,0,VALID,26.8032,VALID,125,VALID,2.51367,
2011-05-28, 02:25:05,VALID,998.064,VALID,0,VALID,71.9092,VALID,0,VALID,26.7641,VALID,124,VALID,2.91133,
2011-05-28, 02:26:05,VALID,998.05,VALID,0,VALID,72.0465,VALID,0,VALID,26.8052,VALID,104,VALID,4.14141,
2011-05-28, 02:27:05,VALID,998.065,VALID,0,VALID,71.1233,VALID,0,VALID,26.981,VALID,138,VALID,3.30977,
2011-05-28, 02:28:05,VALID,998.057,VALID,0,VALID,70.8029,VALID,0,VALID,27.0375,VALID,135,VALID,2.43594,
2011-05-28, 02:29:05,VALID,998.087,VALID,0,VALID,70.8715,VALID,0,VALID,27.018,VALID,152,VALID,1.96719,
2011-05-28, 02:30:05,VALID,998.061,VALID,0,VALID,71.3522,VALID,0,VALID,27.018,VALID,134,VALID,1.4832,
2011-05-28, 02:31:05,VALID,998.076,VALID,0,VALID,71.3369,VALID,0,VALID,26.9789,VALID,138,VALID,1.95078,
2011-05-28, 02:32:05,VALID,998.097,VALID,0,VALID,71.7413,VALID,0,VALID,26.9594,VALID,158,VALID,3.08633,
2011-05-28, 02:33:05,VALID,998.143,VALID,0,VALID,71.871,VALID,0,VALID,26.9985,VALID,156,VALID,2.70547,
2011-05-28, 02:34:05,VALID,998.095,VALID,0,VALID,71.7489,VALID,0,VALID,27.0355,VALID,161,VALID,3.82461,
2011-05-28, 02:35:05,VALID,998.086,VALID,0,VALID,71.9855,VALID,0,VALID,27.0961,VALID,141,VALID,2.48359,
2011-05-28, 02:36:05,VALID,998.064,VALID,0,VALID,72.0541,VALID,0,VALID,27.0571,VALID,167,VALID,2.42383,
2011-05-28, 02:37:05,VALID,998.049,VALID,0,VALID,72.2067,VALID,0,VALID,27.018,VALID,176,VALID,3.09414,
2011-05-28, 02:38:05,VALID,998.035,VALID,0,VALID,71.9855,VALID,0,VALID,27.018,VALID,173,VALID,4.21094,
2011-05-28, 02:39:05,VALID,998.053,VALID,0,VALID,71.8176,VALID,0,VALID,27.0766,VALID,169,VALID,5.07266,
2011-05-28, 02:40:05,VALID,998.03,VALID,0,VALID,71.9473,VALID,0,VALID,27.0961,VALID,175,VALID,3.20742,
2011-05-28, 02:41:05,VALID,998.092,VALID,0,VALID,72.4967,VALID,0,VALID,27.0766,VALID,183,VALID,3.5082,
2011-05-28, 02:42:05,VALID,998.053,VALID,0,VALID,71.665,VALID,0,VALID,27.0766,VALID,174,VALID,5.375,
2011-05-28, 02:43:05,VALID,998.051,VALID,0,VALID,71.1157,VALID,0,VALID,27.1547,VALID,173,VALID,5.61875,
2011-05-28, 02:44:05,VALID,998.08,VALID,0,VALID,71.0546,VALID,0,VALID,27.1938,VALID,189,VALID,4.03633,
2011-05-28, 02:45:05,VALID,998.155,VALID,0,VALID,71.2378,VALID,0,VALID,27.2133,VALID,171,VALID,4.04492,
2011-05-28, 02:46:05,VALID,998.149,VALID,0,VALID,71.2912,VALID,0,VALID,27.1743,VALID,183,VALID,3.03125,
2011-05-28, 02:47:05,VALID,998.115,VALID,0,VALID,71.2149,VALID,0,VALID,27.1743,VALID,187,VALID,3.45703,
2011-05-28, 02:48:05,VALID,998.12,VALID,0,VALID,71.2759,VALID,0,VALID,27.1547,VALID,178,VALID,3.63789,
2011-05-28, 02:49:05,VALID,998.115,VALID,0,VALID,70.7952,VALID,0,VALID,27.1547,VALID,198,VALID,4.25625,
2011-05-28, 02:50:05,VALID,998.167,VALID,0,VALID,70.7495,VALID,0,VALID,27.1938,VALID,198,VALID,3.78164,
2011-05-28, 02:51:05,VALID,998.143,VALID,0,VALID,70.3451,VALID,0,VALID,27.2133,VALID,177,VALID,5.17656,
2011-05-28, 02:52:05,VALID,998.176,VALID,0,VALID,70.101,VALID,0,VALID,27.2133,VALID,184,VALID,4.47813,
2011-05-28, 02:53:05,VALID,998.161,VALID,0,VALID,69.6661,VALID,0,VALID,27.2719,VALID,176,VALID,5.60039,
2011-05-28, 02:54:05,VALID,998.184,VALID,0,VALID,70.101,VALID,0,VALID,27.2719,VALID,159,VALID,4.77266,
2011-05-28, 02:55:05,VALID,998.169,VALID,0,VALID,69.7729,VALID,0,VALID,27.2329,VALID,173,VALID,5.62539,
2011-05-28, 02:56:05,VALID,998.157,VALID,0,VALID,69.132,VALID,0,VALID,27.2935,VALID,161,VALID,6.26641,
2011-05-28, 02:57:05,VALID,998.178,VALID,0,VALID,69.1244,VALID,0,VALID,27.2915,VALID,167,VALID,6.41563,
2011-05-28, 02:58:05,VALID,998.197,VALID,0,VALID,69.2846,VALID,0,VALID,27.3305,VALID,174,VALID,4.93516,
2011-05-28, 02:59:05,VALID,998.207,VALID,0,VALID,69.1015,VALID,0,VALID,27.2915,VALID,167,VALID,6.22266,
2011-05-28, 03:00:05,VALID,998.199,VALID,0,VALID,69.4295,VALID,0,VALID,27.2915,VALID,160,VALID,3.91914,
2011-05-28, 03:01:05,VALID,998.234,VALID,0,VALID,69.9178,VALID,0,VALID,27.1938,VALID,161,VALID,3.74844,
2011-05-28, 03:02:05,VALID,998.208,VALID,0,VALID,70.1238,VALID,0,VALID,27.0961,VALID,165,VALID,3.66719,
2011-05-28, 03:03:05,VALID,998.162,VALID,0,VALID,70.3222,VALID,0,VALID,27.0766,VALID,161,VALID,4.26289,
2011-05-28, 03:04:05,VALID,998.184,VALID,0,VALID,70.4519,VALID,0,VALID,27.0375,VALID,161,VALID,5.12422,
2011-05-28, 03:05:05,VALID,998.172,VALID,0,VALID,70.6045,VALID,0,VALID,27.0375,VALID,161,VALID,4.26523,
2011-05-28, 03:06:05,VALID,998.186,VALID,0,VALID,70.6274,VALID,0,VALID,26.9985,VALID,176,VALID,4.53242,
2011-05-28, 03:07:05,VALID,998.1,VALID,0,VALID,70.7724,VALID,0,VALID,26.9985,VALID,170,VALID,4.16992,
2011-05-28, 03:08:05,VALID,998.106,VALID,0,VALID,70.8487,VALID,0,VALID,26.9789,VALID,167,VALID,4.23047,
2011-05-28, 03:09:05,VALID,998.097,VALID,0,VALID,70.3756,VALID,0,VALID,26.9985,VALID,174,VALID,5.18437,
2011-05-28, 03:10:05,VALID,998.093,VALID,0,VALID,70.6045,VALID,0,VALID,27.0355,VALID,167,VALID,4.46328,
2011-05-28, 03:11:05,VALID,998.106,VALID,0,VALID,70.986,VALID,0,VALID,26.9964,VALID,175,VALID,3.93477,
2011-05-28, 03:12:05,VALID,998.083,VALID,0,VALID,70.7037,VALID,0,VALID,26.9985,VALID,174,VALID,4.83711,
2011-05-28, 03:13:05,VALID,998.107,VALID,0,VALID,71.1081,VALID,0,VALID,26.9378,VALID,165,VALID,3.10508,
2011-05-28, 03:14:05,VALID,998.106,VALID,0,VALID,71.2378,VALID,0,VALID,26.9204,VALID,156,VALID,4.1375,
2011-05-28, 03:15:05,VALID,998.077,VALID,0,VALID,71.0928,VALID,0,VALID,26.9204,VALID,176,VALID,3.93594,
2011-05-28, 03:16:05,VALID,998.093,VALID,0,VALID,71.8481,VALID,0,VALID,26.8597,VALID,162,VALID,2.71406,
2011-05-28, 03:17:05,VALID,998.096,VALID,0,VALID,71.9702,VALID,0,VALID,26.8227,VALID,168,VALID,3.80547,
2011-05-28, 03:18:05,VALID,998.098,VALID,0,VALID,72.3669,VALID,0,VALID,26.7446,VALID,167,VALID,3.33789,
2011-05-28, 03:19:05,VALID,998.128,VALID,0,VALID,72.7789,VALID,0,VALID,26.6665,VALID,160,VALID,2.30938,
2011-05-28, 03:20:05,VALID,998.115,VALID,0,VALID,72.8858,VALID,0,VALID,26.6079,VALID,161,VALID,1.72812,
2011-05-28, 03:21:05,VALID,998.154,VALID,0,VALID,72.8247,VALID,0,VALID,26.5688,VALID,167,VALID,2.62031,
2011-05-28, 03:22:05,VALID,998.144,VALID,0,VALID,73.0078,VALID,0,VALID,26.5884,VALID,159,VALID,1.94766,
2011-05-28, 03:23:05,VALID,998.153,VALID,0,VALID,73.2367,VALID,0,VALID,26.5493,VALID,168,VALID,2.06211,
2011-05-28, 03:24:05,VALID,998.212,VALID,0,VALID,73.2901,VALID,0,VALID,26.5082,VALID,168,VALID,1.68516,
2011-05-28, 03:25:05,VALID,998.207,VALID,0,VALID,73.5343,VALID,0,VALID,26.4692,VALID,168,VALID,1.48906,
2011-05-28, 03:26:05,VALID,998.196,VALID,0,VALID,73.7479,VALID,0,VALID,26.4301,VALID,165,VALID,1.69727,
2011-05-28, 03:27:05,VALID,998.206,VALID,0,VALID,73.8166,VALID,0,VALID,26.4146,VALID,179,VALID,1.81172,
2011-05-28, 03:28:05,VALID,998.233,VALID,0,VALID,73.9463,VALID,0,VALID,26.4126,VALID,181,VALID,1.24023,
2011-05-28, 03:29:05,VALID,998.217,VALID,0,VALID,73.2444,VALID,0,VALID,26.4732,VALID,163,VALID,2.9832,
2011-05-28, 03:30:05,VALID,998.192,VALID,0,VALID,72.5043,VALID,0,VALID,26.5688,VALID,182,VALID,2.96133,
2011-05-28, 03:31:05,VALID,998.217,VALID,0,VALID,72.0999,VALID,0.112286,VALID,26.6254,VALID,165,VALID,3.67188,
2011-05-28, 03:32:05,VALID,998.229,VALID,0,VALID,71.7947,VALID,0,VALID,26.7836,VALID,174,VALID,2.8582,
2011-05-28, 03:33:05,VALID,998.196,VALID,0,VALID,71.2149,VALID,0,VALID,26.8422,VALID,191,VALID,3.01719,
2011-05-28, 03:34:05,VALID,998.217,VALID,0,VALID,71.2759,VALID,0,VALID,26.8597,VALID,166,VALID,2.53906,
2011-05-28, 03:35:05,VALID,998.219,VALID,0,VALID,72.5348,VALID,0,VALID,26.8227,VALID,131,VALID,1.08984,
2011-05-28, 03:36:05,VALID,998.201,VALID,0,VALID,72.9544,VALID,0,VALID,26.6644,VALID,42,VALID,1.06289,
2011-05-28, 03:37:05,VALID,998.277,VALID,0,VALID,74.1218,VALID,0,VALID,26.5102,VALID,89,VALID,1.41562,
2011-05-28, 03:38:05,VALID,998.231,VALID,0,VALID,74.549,VALID,0,VALID,26.354,VALID,140,VALID,1.06641,
2011-05-28, 03:39:05,VALID,998.242,VALID,0,VALID,74.1218,VALID,0,VALID,26.2544,VALID,169,VALID,2.2793,
2011-05-28, 03:40:05,VALID,998.175,VALID,0,VALID,74.9687,VALID,0,VALID,26.2954,VALID,102,VALID,2.08047,
2011-05-28, 03:41:05,VALID,998.175,VALID,0,VALID,76.2199,VALID,0,VALID,26.1392,VALID,78,VALID,0.675391,
2011-05-28, 03:42:05,VALID,998.199,VALID,0,VALID,75.4264,VALID,0.112286,VALID,25.9225,VALID,163,VALID,2.48398,
2011-05-28, 03:43:05,VALID,998.183,VALID,0,VALID,74.1828,VALID,0.112286,VALID,26.0201,VALID,155,VALID,2.70977,
2011-05-28, 03:44:05,VALID,998.151,VALID,0,VALID,72.3441,VALID,0.112286,VALID,26.4106,VALID,182,VALID,4.42227,
2011-05-28, 03:45:05,VALID,998.151,VALID,0,VALID,70.3527,VALID,0,VALID,26.7446,VALID,176,VALID,3.09023,